STARLINK-34234, 64248

Orbit data source: Space-Track

STARLINK-34234, 64248 is a payload satellite owned by SpaceX/Seattle (US) in LEO that was launched on Tue, 03 Jun 2025 UTC via an FALCON 9 launch vehicle from the Air Force Eastern Test Range (AFETR). Payload-class satellites include a variety of spacecraft equipped with specific instruments for various scientific and technological missions. These include communications satellites like Starlink; space stations such as the ISS; scientific satellites like the Hubble; Earth observation satellites from companies like Planet Labs, Umbra, and HawkEye 360; GPS; miniature CubeSats for education and research; and military/defense satellites.

Loading next visibility...
Identifier
64248, 2025-119R
Orbit
LEO
Country
Flag of USUS
Related business
Manufacturer
SpaceX/Seattle
Mission
Operational Commercial Communications
Bus & Motor
STARLINK V2MO, Unknown motor
Mass
575 kg wet, ~530 kg dry
Launch date (UTC)
2025-06-03 (1 year ago)
Launch vehicle
FALCON 9
Launch site
Air Force Eastern Test Range (AFETR)
Object type
Payload
Rocket body
Debris
Shape & HBR
Box + 2 Pan, 17.7 m
Radar Cross Section
36.964 m², Large (>1 m²)

Expand to show TLE details & history
Last TLE update: 17 hours ago

TLE from 17 hours ago
0 STARLINK-34234
1 64248U 25119R   26171.11647418  .00014985  00000-0  55238-3 0  9994
2 64248  43.0008  88.6381 0001523 270.4992  89.5685 15.27615305 59830
Epoch: 2026-06-20T02:47Z
TLE epoch observation values (Epoch: 2026-06-20T02:47:43.369Z)
Latitude
-0.00001°
Longitude
138.37167°
Altitude
482.711 km
Speed
7.626 km/s
True Right ascension
05h 54m 33s
True Declination
0° 00' 00"
Sunlit
Object was in daylight at epoch
Visualization orbit readout
Latitude
Unknown
Longitude
Unknown
Altitude
Unknown
Speed
Unknown
Apparent Right ascension
Unknown
Apparent Declination
Unknown
Sunlit
N/A
Visualization observer readout
Local Sidereal Time
07:13:21
Azimuth
Unknown
Elevation
Unknown
Doppler factor
Unknown
Orbital elements
Apogee altitude
485.934 km
Perigee altitude
483.843 km
Semi-major axis
6,863.025 km
Eccentricity
0.00015
Inclination
43.0008°
RAAN
88.6381°
Arg. of periapsis
270.4992°
True anomaly
89.58595°
Mean anomaly
89.5685°
Eccentric anomaly
89.57723°
Mean motion
3.81742 °/min
Orbital period
94.3 mins
BSTAR
0.00055238
Loading maneuver chart data...
Computing Atmospheric mass density...
Loading historical data...
Loading historical data...
Loading historical data...
Loading historical data...
Loading historical data...
Loading historical data...
Loading historical data...

Documentation

Showing up to 5 results
|